This is the latest recevied weather packets stored in our database for station/object KQ4KX. If no packets are shown the sender has not sent any weather packets the latest 10 day(s).
| Time | Temp. | Humidity | Pressure | Rain* | Wind** | Luminosity | Snow |
|---|---|---|---|---|---|---|---|
| 1777560896 | 26.67° C | 74% | 1012.9 hPa | 0 mm | - | - | - |
| 1777560596 | 26.67° C | 75% | 1012.9 hPa | 0 mm | - | - | - |
| 1777560296 | 26.67° C | 77% | 1012.8 hPa | 0 mm | - | - | - |
| 1777559966 | 26.11° C | 79% | 1012.8 hPa | 0 mm | - | - | - |
| 1777559665 | 26.11° C | 80% | 1012.7 hPa | 0 mm | - | - | - |
| 1777559366 | 25.56° C | 78% | 1012.7 hPa | 0 mm | - | - | - |
| 1777559036 | 25.56° C | 80% | 1012.9 hPa | 0 mm | - | - | - |
| 1777558736 | 25° C | 83% | 1012.9 hPa | 0 mm | - | - | - |
| 1777558436 | 25° C | 83% | 1012.7 hPa | 0 mm | - | - | - |
| 1777557836 | 24.44° C | 90% | 1012.8 hPa | 0 mm | - | - | - |
| 1777557176 | 23.89° C | 93% | 1013.1 hPa | 0 mm | - | - | - |
| 1777556845 | 23.33° C | 93% | 1013 hPa | 0 mm | - | - | - |
| 1777556215 | 23.33° C | 94% | 1013.2 hPa | 0 mm | - | - | - |
| 1777555885 | 23.33° C | 95% | 1013.3 hPa | 0 mm | - | - | - |
| 1777555585 | 23.33° C | 96% | 1013.2 hPa | 0 mm | - | - | - |
| 1777555285 | 22.78° C | 95% | 1013.2 hPa | 0 mm | - | - | - |
| 1777554656 | 22.78° C | 96% | 1013.4 hPa | 0 mm | - | - | - |
| 1777554057 | 22.78° C | 96% | 1013.6 hPa | 0 mm | - | - | - |
| 1777554055 | 22.78° C | 96% | 1013.6 hPa | 0 mm | - | - | - |
| 1777553395 | 22.78° C | 95% | 1013.5 hPa | 0 mm | - | - | - |
| 1777553095 | 22.78° C | 95% | 1013.5 hPa | 0 mm | - | - | - |
| 1777552795 | 22.78° C | 95% | 1013.4 hPa | 0 mm | - | - | - |
| 1777552166 | 22.78° C | 96% | 1013.2 hPa | 0 mm | - | - | - |
| 1777551835 | 22.22° C | 97% | 1013.1 hPa | 0 mm | - | - | - |
| 1777551236 | 22.22° C | 98% | 1012.9 hPa | 0 mm | - | - | - |
* Rain latest hour (hover to see other rain measurements)
** Current wind speed in m/s (hover to see current wind gust speed)